Waarnemingen

Advertentie
Mijn weer
Troyes, Frankrijk (7168): temperatuur & dauwpunt: 14.02.2019 14:00:00 - 20.02.2019 14:00:00 (CET)Troyes, Frankrijk (7168): temperatuur 5cm: 14.02.2019 14:00:00 - 20.02.2019 14:00:00 (CET)Troyes, Frankrijk (7168): temperatuur -20cm & temperatuur -100cm: 14.02.2019 14:00:00 - 20.02.2019 14:00:00 (CET)Troyes, Frankrijk (7168): windsnelheid & windstoten: 14.02.2019 14:00:00 - 20.02.2019 14:00:00 (CET)Troyes, Frankrijk (7168): windrichting: 14.02.2019 14:00:00 - 20.02.2019 14:00:00 (CET)Troyes, Frankrijk (7168): luchtdruk: 14.02.2019 14:00:00 - 20.02.2019 14:00:00 (CET)Troyes, Frankrijk (7168): zicht: 14.02.2019 14:00:00 - 20.02.2019 14:00:00 (CET)Troyes, Frankrijk (7168): Zonneschijnduur: 14.02.2019 14:00:00 - 20.02.2019 14:00:00 (CET)Troyes, Frankrijk (7168): neerslag: 14.02.2019 14:00:00 - 20.02.2019 14:00:00 (CET)
Datum & Tijd tt [°C] td [°C] tt 5cm [°C] tt -20cm [°C] tt -100cm [°C] ff [km/u] ff [kn] fx [km/u] fx [kn] dd ppp [hPa] vv [km] sd [min] rr [mm]
20.02.2019 14:00:00 - - - - - - - - - - - - - -
20.02.2019 13:00:00 12,7 6,9 13,9 5,3 7,5 0 0 10 6 N 1025,2 14 55 0,0
20.02.2019 12:00:00 9,7 6,8 9,8 5,2 7,5 0 0 5 3 N 1025,6 12 0 0,0
20.02.2019 11:00:00 6,3 5,4 5,9 5,2 7,5 5 3 11 6 Z 1025,4 8 0 0,0
20.02.2019 10:00:00 4,3 4,0 3,8 5,3 7,5 5 3 13 7 Z 1025,2 6 29 0,0
20.02.2019 09:00:00 2,8 2,5 2,1 5,4 7,5 6 3 11 6 ZZO 1024,9 4,8 0 0,0
20.02.2019 08:00:00 1,9 1,8 1,4 5,4 7,5 6 3 13 7 ZZO 1024,2 2,0 0 0,0
20.02.2019 07:00:00 1,2 1,1 -0,1 5,5 7,5 5 3 8 5 ZZO 1024,1 1,1 0 0,0
20.02.2019 06:00:00 0,4 0,1 -1,0 5,6 7,5 6 3 11 6 Z 1023,8 0,2 0 0,0
20.02.2019 05:00:00 0,0 -0,3 -1,9 5,7 7,5 9 5 11 6 Z 1023,6 0,3 0 0,0
20.02.2019 04:00:00 -0,3 -0,6 -3,5 5,8 7,5 2 1 7 4 ZZO 1023,6 0,1 0 0,0
20.02.2019 03:00:00 0,6 0,2 -2,5 5,9 7,5 4 2 7 4 ZZO 1023,9 2,2 0 0,0
20.02.2019 02:00:00 0,3 -0,3 -1,6 6,0 7,5 3 2 6 4 ZZO 1024,0 2,6 0 0,0
20.02.2019 01:00:00 1,1 0,7 -2,1 6,1 7,5 4 2 9 5 Z 1024,0 2,3 0 0,0
20.02.2019 00:00:00 0,3 -0,4 -2,4 6,2 7,5 2 1 5 3 ZZO 1023,8 2,1 0 0,0
19.02.2019 23:00:00 1,5 0,8 -2,0 6,3 7,5 3 2 8 4 ZZO 1023,8 3,9 0 0,0
19.02.2019 22:00:00 0,7 -0,2 -2,4 6,4 7,5 2 1 9 5 ZZO 1023,9 4,0 0 0,0
19.02.2019 21:00:00 3,3 2,6 -2,1 6,4 7,5 2 1 4 2 O 1023,6 5 0 0,0
19.02.2019 20:00:00 2,5 0,9 -1,6 6,4 7,5 0 0 2 1 N 1023,7 12 0 0,0
19.02.2019 19:00:00 4,2 2,4 0,6 6,2 7,5 0 0 6 3 N 1023,0 14 0 0,0
19.02.2019 18:00:00 8,8 4,6 4,1 6,1 7,5 2 1 4 2 NW 1022,4 20 0 0,0
19.02.2019 17:00:00 10,2 5,2 10,2 6,0 7,5 3 2 8 5 NW 1022,7 20 0 0,0
19.02.2019 16:00:00 10,8 5,5 12,1 5,8 7,5 5 3 9 5 NNW 1022,9 20 0 -
19.02.2019 15:00:00 10,3 5,7 12,1 5,6 7,5 6 3 12 7 WNW 1023,0 20 0 0,0
19.02.2019 14:00:00 10,2 6,0 12,0 5,5 7,5 6 3 12 6 NNW 1023,2 19 1 0,0
19.02.2019 13:00:00 9,6 6,3 11,3 5,4 7,5 10 5 14 8 NW 1023,6 19 0 -
19.02.2019 12:00:00 - - - - - 3 2 11 6 NNW - 20 - -
19.02.2019 11:00:00 - - - - - 4 2 10 5 N - 20 - -
19.02.2019 10:00:00 8,3 6,3 8,0 5,2 7,5 0 0 5 3 N 1023,4 15 0 0,0
19.02.2019 09:00:00 7,1 6,2 5,9 5,2 7,5 5 3 12 6 ZZW 1023,0 8 0 0,0
19.02.2019 08:00:00 6,2 5,3 5,8 5,3 7,6 7 4 11 6 NW 1022,2 4,5 0 0,0
19.02.2019 07:00:00 6,5 5,1 6,0 5,2 7,5 9 5 21 11 W 1021,4 7 0 0,0
19.02.2019 06:00:00 6,6 4,3 4,3 5,3 7,5 14 8 19 10 W 1021,1 15 0 0,0
19.02.2019 05:00:00 5,8 2,1 4,4 5,4 7,5 4 2 9 5 NNO 1020,6 20 0 0,0
19.02.2019 04:00:00 5,6 2,2 0,8 5,4 7,5 2 1 9 5 N 1020,2 20 0 0,0
19.02.2019 03:00:00 5,2 1,3 4,6 5,5 7,5 2 1 7 4 OZO 1020,2 19 0 0,0
19.02.2019 02:00:00 6,2 1,7 0,9 5,5 7,5 4 2 6 4 ZO 1019,7 20 0 0,0
19.02.2019 01:00:00 6,4 2,7 2,0 5,6 7,5 3 2 18 10 NNW 1019,8 20 0 0,0
19.02.2019 00:00:00 4,4 1,8 -0,9 5,7 7,5 3 1 15 8 Z 1019,4 19 0 0,0
18.02.2019 23:00:00 4,1 1,3 -0,2 5,7 7,5 10 5 13 7 ZZO 1019,0 20 0 0,0
18.02.2019 22:00:00 4,7 1,2 1,3 5,7 7,5 8 4 12 6 Z 1019,0 20 0 0,0
18.02.2019 21:00:00 4,0 1,2 0,4 5,7 7,5 9 5 11 6 ZZO 1018,7 20 0 0,0
18.02.2019 20:00:00 5,8 0,1 1,4 5,6 7,5 5 3 9 5 Z 1018,7 20 0 0,0
18.02.2019 19:00:00 9,0 1,4 3,3 5,5 7,5 3 1 8 5 ZZO 1018,3 20 0 0,0
18.02.2019 18:00:00 10,7 2,5 6,8 5,3 7,5 8 4 14 8 Z 1017,7 20 35 0,0
18.02.2019 17:00:00 14,9 3,1 14,5 5,0 7,5 11 6 22 12 Z 1017,6 20 51 0,0
18.02.2019 16:00:00 15,4 3,5 16,0 4,9 7,5 12 7 22 12 Z 1017,6 20 57 0,0
18.02.2019 15:00:00 14,4 2,9 15,5 4,7 7,5 14 7 24 13 Z 1017,9 20 47 0,0
18.02.2019 14:00:00 14,0 2,9 16,4 4,5 7,5 13 7 24 13 Z 1018,6 20 54 0,0
18.02.2019 13:00:00 13,6 2,8 14,5 4,5 7,5 11 6 24 13 Z 1019,6 20 60 0,0
18.02.2019 12:00:00 11,5 2,5 14,0 4,5 7,5 21 11 26 14 Z 1020,1 20 60 0,0
18.02.2019 11:00:00 9,9 2,0 9,7 4,6 7,5 13 7 18 10 ZZO 1020,3 20 60 0,0
18.02.2019 10:00:00 6,8 1,3 5,8 4,7 7,5 13 7 20 11 ZZO 1020,6 19 60 0,0
18.02.2019 09:00:00 4,1 0,6 -1,1 4,8 7,5 8 5 13 7 ZZO 1020,8 20 50 0,0
18.02.2019 08:00:00 0,8 -1,1 -5,6 4,9 7,5 8 4 10 5 O 1020,7 19 0 0,0
18.02.2019 07:00:00 -1,1 -2,5 -4,9 4,9 7,5 0 0 9 5 N 1020,9 20 0 0,0
18.02.2019 06:00:00 0,1 -1,8 -4,3 5,1 7,6 3 1 10 6 O 1020,8 18 0 0,0
18.02.2019 05:00:00 -0,4 -2,0 -4,2 5,2 7,6 4 2 11 6 Z 1020,8 19 0 0,0
18.02.2019 04:00:00 0,2 -1,9 -4,1 5,3 7,5 6 3 11 6 ZZO 1021,0 20 0 0,0
18.02.2019 03:00:00 1,2 -2,2 -3,4 5,4 7,5 3 2 8 5 ZO 1021,2 16 0 0,0
18.02.2019 02:00:00 3,4 -1,0 0,2 5,4 7,5 5 3 8 5 ZO 1021,2 20 0 0,0
18.02.2019 01:00:00 3,6 -1,4 -1,5 5,6 7,6 8 4 10 5 ZO 1021,3 20 0 0,0
18.02.2019 00:00:00 4,4 -1,6 -1,9 5,7 7,5 7 4 13 7 ZO 1021,4 16 0 0,0
17.02.2019 23:00:00 2,1 -1,5 -1,8 5,7 7,6 8 5 12 7 Z 1021,7 14 0 0,0
17.02.2019 22:00:00 3,0 -1,2 -2,7 5,7 7,5 6 3 8 4 OZO 1021,9 20 0 0,0
17.02.2019 21:00:00 3,0 -1,7 -3,0 5,7 7,6 4 2 5 3 ZO 1021,6 20 0 0,0
17.02.2019 20:00:00 4,7 -0,3 -1,3 5,7 7,5 0 0 7 4 N 1021,3 20 0 0,0
17.02.2019 19:00:00 7,0 1,5 1,0 5,5 7,5 6 3 11 6 ZO 1021,0 20 0 0,0
17.02.2019 18:00:00 9,4 2,5 6,5 5,3 7,5 10 6 16 9 ZZW 1020,6 20 43 0,0
17.02.2019 17:00:00 16,4 2,0 15,9 5,0 7,5 15 8 22 12 Z 1020,1 20 60 0,0
17.02.2019 16:00:00 18,0 -0,8 19,5 4,8 7,5 16 9 25 13 ZZO 1020,6 20 60 0,0
17.02.2019 15:00:00 17,4 1,4 19,8 4,7 7,5 17 9 28 15 Z 1021,1 20 60 0,0
17.02.2019 14:00:00 16,6 1,5 19,2 4,5 7,5 14 8 22 12 ZZO 1021,7 20 60 0,0
17.02.2019 13:00:00 15,2 1,3 16,9 4,5 7,5 18 10 26 14 Z 1022,2 20 60 0,0
17.02.2019 12:00:00 13,2 0,6 15,2 4,6 7,5 18 10 24 13 ZZO 1022,7 10 60 0,0
17.02.2019 11:00:00 11,3 1,2 10,4 4,7 7,5 13 7 17 9 ZZO 1023,0 20 60 0,0
17.02.2019 10:00:00 7,1 1,6 5,6 4,7 7,5 8 4 13 7 Z 1023,6 15 60 0,0
17.02.2019 09:00:00 2,5 0,9 -4,4 4,8 7,5 2 1 8 5 O 1023,8 10 48 0,0
17.02.2019 08:00:00 -0,8 -1,9 -6,0 4,9 7,6 5 3 8 4 Z 1023,9 10 0 0,0
17.02.2019 07:00:00 -1,3 -2,6 -5,6 5,0 7,6 4 2 5 3 ZO 1023,6 8 0 0,0
17.02.2019 06:00:00 -0,1 -1,1 -4,3 5,1 7,6 6 3 8 4 ZZO 1023,7 9 0 0,0
17.02.2019 05:00:00 -0,4 -1,2 -4,9 5,2 7,6 3 2 7 4 ZZO 1024,0 8 0 0,0
17.02.2019 04:00:00 -1,0 -2,4 -2,9 5,4 7,6 6 4 9 5 ZZO 1024,2 4,9 0 0,0
17.02.2019 03:00:00 1,6 0,0 -1,9 5,5 7,6 7 4 11 6 ZO 1024,6 8 0 0,0
17.02.2019 02:00:00 1,6 0,3 -1,6 5,6 7,6 8 4 11 6 ZZO 1024,7 11 0 0,0
17.02.2019 01:00:00 1,0 0,0 -2,3 5,7 7,6 9 5 11 6 Z 1025,0 5 0 0,0
17.02.2019 00:00:00 1,3 0,1 -2,2 5,7 7,6 5 3 10 5 Z 1025,5 8 0 0,0
16.02.2019 23:00:00 0,2 -1,1 -2,5 5,8 7,6 4 2 7 4 Z 1026,0 4,5 0 0,0
16.02.2019 22:00:00 1,2 0,0 -2,1 5,8 7,6 4 2 7 4 Z 1026,1 6 0 0,0
16.02.2019 21:00:00 2,8 1,3 -1,0 5,8 7,6 3 2 4 2 ZZO 1026,1 8 0 0,0
16.02.2019 20:00:00 4,8 2,3 -1,4 5,7 7,6 0 0 4 2 N 1026,3 9 0 0,0
16.02.2019 19:00:00 8,9 4,5 1,7 5,5 7,6 0 0 10 6 N 1026,3 8 0 0,0
16.02.2019 18:00:00 13,1 5,0 9,8 5,3 7,6 7 4 10 6 ONO 1025,7 16 38 0,0
16.02.2019 17:00:00 15,6 5,2 16,1 5,0 7,6 8 4 9 5 O 1025,7 10 60 0,0
16.02.2019 16:00:00 16,4 5,4 19,8 4,8 7,6 6 3 8 5 NW 1026,3 18 60 0,0
16.02.2019 15:00:00 17,6 5,2 21,3 4,6 7,5 0 0 9 5 N 1026,7 16 60 0,0
16.02.2019 14:00:00 15,6 4,6 20,7 4,4 7,6 4 2 9 5 O 1027,3 15 60 0,0
16.02.2019 13:00:00 14,5 4,8 18,3 4,4 7,6 3 1 12 7 O 1027,9 16 60 0,0
16.02.2019 12:00:00 12,6 4,0 15,6 4,5 7,6 2 1 5 3 ZZO 1028,2 15 60 0,0
16.02.2019 11:00:00 9,4 3,6 7,9 4,5 7,6 0 0 10 5 N 1028,6 10 60 0,0
16.02.2019 10:00:00 4,9 1,9 2,4 4,6 7,6 6 4 12 6 Z 1028,6 8 60 0,0
16.02.2019 09:00:00 1,5 -0,1 -2,7 4,7 7,6 6 4 10 5 ZZO 1028,9 8 46 0,0
16.02.2019 08:00:00 -0,5 -1,5 -4,4 4,8 7,6 5 3 8 5 ZO 1028,6 9 0 0,0
16.02.2019 07:00:00 -0,7 -1,7 -4,3 4,9 7,6 5 3 9 5 ZZO 1028,2 9 0 0,0
16.02.2019 06:00:00 -0,5 -1,5 -3,0 5,0 7,6 8 5 13 7 ZZO 1028,4 9 0 0,0
16.02.2019 05:00:00 0,4 -0,7 -3,4 5,0 7,6 10 5 11 6 ZO 1028,3 11 0 0,0
16.02.2019 04:00:00 0,5 -0,8 -3,0 5,1 7,6 9 5 13 7 ZZO 1028,3 12 0 0,0
16.02.2019 03:00:00 1,7 0,2 -3,1 5,2 7,6 7 4 10 6 Z 1028,3 12 0 0,0
16.02.2019 02:00:00 2,0 0,7 -2,5 5,3 7,6 8 4 10 6 ZO 1028,3 10 0 0,0
16.02.2019 01:00:00 1,2 -0,1 -3,8 5,4 7,6 6 4 8 5 Z 1028,2 9 0 0,0
16.02.2019 00:00:00 2,2 0,9 -2,8 5,5 7,6 5 3 10 5 ZZO 1027,9 12 0 0,0
15.02.2019 23:00:00 3,0 2,1 -3,1 5,6 7,6 7 4 9 5 ZZO 1027,8 10 0 0,0
15.02.2019 22:00:00 2,3 1,1 -2,1 5,6 7,6 5 3 6 4 Z 1028,1 11 0 0,0
15.02.2019 21:00:00 2,9 0,5 -1,9 5,6 7,6 2 1 3 2 ONO 1028,1 16 0 0,0
15.02.2019 20:00:00 4,3 1,7 -1,5 5,5 7,6 0 0 4 2 N 1028,1 19 0 0,0
15.02.2019 19:00:00 5,9 2,7 0,7 5,3 7,6 3 2 7 4 WNW 1028,1 17 0 0,0
15.02.2019 18:00:00 9,9 3,4 6,4 5,0 7,6 2 1 10 5 NNW 1027,7 19 40 0,0
15.02.2019 17:00:00 17,5 3,4 18,0 4,8 7,6 6 3 14 8 OZO 1027,5 20 60 0,0
15.02.2019 16:00:00 17,6 3,8 20,8 4,5 7,6 8 4 13 7 O 1028,0 20 60 0,0
15.02.2019 15:00:00 17,0 4,3 20,8 4,4 7,6 5 3 19 10 OZO 1028,6 20 60 0,0
15.02.2019 14:00:00 15,4 3,2 18,8 4,3 7,6 7 4 13 7 O 1029,3 17 60 0,0
15.02.2019 13:00:00 13,3 3,4 15,9 4,3 7,6 6 3 13 7 ZO 1030,2 19 60 0,0
15.02.2019 12:00:00 10,6 2,4 13,3 4,3 7,6 8 4 17 9 ZZO 1031,1 19 60 0,0
15.02.2019 11:00:00 8,1 1,7 7,7 4,4 7,6 12 7 18 10 OZO 1031,4 16 60 0,0
15.02.2019 10:00:00 4,0 1,0 1,9 4,4 7,6 8 4 10 6 Z 1031,8 13 60 0,0
15.02.2019 09:00:00 1,2 -0,1 -3,9 4,5 7,6 3 2 7 4 ZO 1032,1 8 44 0,0
15.02.2019 08:00:00 -0,1 -1,4 -5,9 4,6 7,6 6 3 10 6 OZO 1032,1 11 0 0,0
15.02.2019 07:00:00 -0,5 -2,2 -4,1 4,7 7,6 7 4 11 6 ZZO 1031,7 11 0 0,0
15.02.2019 06:00:00 -0,2 -1,5 -3,5 4,8 7,6 9 5 14 8 ZZO 1032,0 11 0 0,0
15.02.2019 05:00:00 -0,8 -1,6 -4,7 4,9 7,6 9 5 12 6 ZZO 1032,0 8 0 0,0
15.02.2019 04:00:00 -0,7 -1,8 -5,4 5,0 7,7 3 2 8 5 ZO 1031,9 7 0 0,0
15.02.2019 03:00:00 -1,3 -2,3 -4,8 5,0 7,6 6 3 7 4 ZZO 1032,0 7 0 0,0
15.02.2019 02:00:00 0,0 -0,9 -4,1 5,1 7,6 7 4 9 5 ZZO 1032,5 8 0 0,0
15.02.2019 01:00:00 0,4 -0,9 -2,4 5,2 7,7 4 2 10 5 ZZO 1032,7 6 0 0,0
15.02.2019 00:00:00 2,0 0,2 -3,4 5,3 7,7 7 4 12 7 OZO 1032,7 8 0 0,0
14.02.2019 23:00:00 2,6 1,4 -3,6 5,4 7,7 6 3 9 5 ZO 1032,6 9 0 0,0
14.02.2019 22:00:00 1,8 0,5 -2,8 5,4 7,6 3 1 6 3 ZZO 1032,7 10 0 0,0
14.02.2019 21:00:00 2,4 0,5 -1,2 5,3 7,6 3 2 7 4 ZZO 1032,3 12 0 0,0
14.02.2019 20:00:00 5,8 2,1 -0,9 5,2 7,7 2 1 7 4 OZO 1032,3 17 0 0,0
14.02.2019 19:00:00 8,3 3,7 0,8 5,1 7,7 3 1 10 5 ONO 1032,2 20 0 0,0
14.02.2019 18:00:00 11,9 4,4 8,3 4,9 7,7 6 3 11 6 ONO 1031,7 20 37 0,0
14.02.2019 17:00:00 13,9 4,7 14,4 4,7 7,6 8 5 16 9 ONO 1031,9 20 52 0,0
14.02.2019 16:00:00 14,8 3,9 16,9 4,5 7,7 10 5 16 9 ONO 1032,5 20 60 0,0
14.02.2019 15:00:00 14,1 3,5 17,3 4,3 7,6 7 4 16 8 O 1033,1 19 60 0,0
14.02.2019 14:00:00 13,0 3,6 16,2 4,2 7,6 8 4 13 7 O 1033,8 19 60 0,0

tt = temperatuur
td = dauwpunt
tt 5cm = temperatuur 5cm
tt -20cm = temperatuur -20cm
tt -100cm = temperatuur -100cm
ff = windsnelheid
fx = windstoten
dd = windrichting
ppp = luchtdruk
vv = zicht
sd = Zonneschijnduur
rr = neerslag

Weerstations in de omgeving